3 Gehege Außen am Haus Messungen

Zurück zum Überblick

Zeitpunkt Temperatur Luftfeuchte
07.08.2020 20:33:25 29,7 C 41,0%
07.08.2020 20:26:23 29,9 C 41,0%
07.08.2020 20:19:21 29,9 C 40,0%
07.08.2020 20:12:21 30,0 C 40,0%
07.08.2020 20:05:19 30,2 C 39,0%
07.08.2020 19:58:17 30,2 C 39,0%
07.08.2020 19:51:16 30,3 C 39,0%
07.08.2020 19:44:14 30,4 C 39,0%
07.08.2020 19:37:12 30,5 C 39,0%
07.08.2020 19:30:10 30,5 C 39,0%
07.08.2020 19:23:08 30,6 C 39,0%
07.08.2020 19:16:07 30,7 C 38,0%
07.08.2020 19:09:06 30,8 C 38,0%
07.08.2020 19:02:03 30,8 C 38,0%
07.08.2020 18:55:03 30,9 C 39,0%
07.08.2020 18:48:00 30,9 C 38,0%
07.08.2020 18:40:58 31,0 C 38,0%
07.08.2020 18:33:56 31,1 C 38,0%
07.08.2020 18:26:55 31,1 C 38,0%
07.08.2020 18:19:53 31,1 C 38,0%
07.08.2020 18:12:52 31,1 C 38,0%
07.08.2020 18:05:49 31,1 C 38,0%
07.08.2020 17:58:46 31,2 C 38,0%
07.08.2020 17:51:43 31,1 C 38,0%
07.08.2020 17:44:47 31,2 C 37,0%
07.08.2020 17:37:40 31,2 C 37,0%
07.08.2020 17:30:38 31,2 C 37,0%
07.08.2020 17:23:35 31,2 C 38,0%
07.08.2020 17:16:34 31,2 C 37,0%
07.08.2020 17:09:31 31,2 C 37,0%
07.08.2020 17:02:28 31,2 C 37,0%
07.08.2020 16:55:27 31,3 C 37,0%
07.08.2020 16:48:25 31,3 C 38,0%
07.08.2020 16:41:24 31,3 C 38,0%
07.08.2020 16:34:22 31,3 C 37,0%
07.08.2020 16:27:21 31,2 C 38,0%
07.08.2020 16:20:21 31,2 C 37,0%
07.08.2020 16:13:20 31,2 C 38,0%
07.08.2020 16:06:16 31,2 C 37,0%
07.08.2020 15:59:15 31,2 C 38,0%
07.08.2020 15:52:12 31,1 C 38,0%
07.08.2020 15:45:08 31,2 C 37,0%
07.08.2020 15:38:08 31,2 C 38,0%
07.08.2020 15:31:07 31,2 C 37,0%
07.08.2020 15:24:03 31,2 C 38,0%
07.08.2020 15:17:02 31,2 C 38,0%
07.08.2020 15:10:00 31,1 C 39,0%
07.08.2020 15:02:58 31,1 C 38,0%
07.08.2020 14:55:55 31,1 C 38,0%
07.08.2020 14:48:54 31,1 C 39,0%
07.08.2020 14:41:53 31,1 C 39,0%
07.08.2020 14:34:50 31,1 C 39,0%
07.08.2020 14:27:49 31,1 C 39,0%
07.08.2020 14:20:49 31,1 C 39,0%
07.08.2020 14:13:46 31,1 C 40,0%
07.08.2020 14:06:43 31,1 C 41,0%
07.08.2020 13:59:40 31,1 C 45,0%
07.08.2020 13:52:38 31,1 C 45,0%
07.08.2020 13:45:36 31,1 C 45,0%
07.08.2020 13:38:35 31,0 C 45,0%
07.08.2020 13:31:34 30,9 C 45,0%
07.08.2020 13:24:31 30,9 C 45,0%
07.08.2020 13:17:28 30,8 C 45,0%
07.08.2020 13:10:26 30,7 C 45,0%
07.08.2020 13:03:25 30,6 C 45,0%
07.08.2020 12:56:22 30,6 C 45,0%
07.08.2020 12:49:22 30,5 C 45,0%
07.08.2020 12:42:21 30,4 C 45,0%
07.08.2020 12:35:19 30,3 C 45,0%
07.08.2020 12:28:16 30,2 C 45,0%
07.08.2020 12:21:14 30,1 C 46,0%
07.08.2020 12:14:12 30,0 C 46,0%
07.08.2020 12:07:10 29,9 C 46,0%
07.08.2020 12:00:10 29,8 C 46,0%
07.08.2020 11:53:07 29,7 C 46,0%
07.08.2020 11:46:04 29,6 C 46,0%
07.08.2020 11:39:03 29,5 C 46,0%
07.08.2020 11:32:02 29,4 C 46,0%
07.08.2020 11:25:00 29,3 C 46,0%
07.08.2020 11:17:58 29,2 C 47,0%
07.08.2020 11:10:55 29,1 C 47,0%
07.08.2020 11:03:54 29,0 C 47,0%
07.08.2020 10:56:50 28,9 C 47,0%
07.08.2020 10:49:49 28,7 C 47,0%
07.08.2020 10:42:47 28,6 C 47,0%
07.08.2020 10:35:46 28,5 C 47,0%
07.08.2020 10:28:46 28,4 C 47,0%
07.08.2020 10:21:44 28,3 C 47,0%
07.08.2020 10:14:42 28,2 C 47,0%
07.08.2020 10:07:41 28,1 C 47,0%
07.08.2020 10:00:39 27,9 C 48,0%
07.08.2020 09:53:38 27,8 C 48,0%
07.08.2020 09:46:37 27,7 C 48,0%
07.08.2020 09:39:34 27,5 C 48,0%
07.08.2020 09:32:32 27,3 C 48,0%
07.08.2020 09:25:29 27,0 C 49,0%
07.08.2020 09:18:28 26,8 C 49,0%
07.08.2020 09:11:27 26,4 C 49,0%
07.08.2020 09:04:24 26,1 C 49,0%
07.08.2020 08:57:22 25,8 C 50,0%
07.08.2020 08:50:21 25,4 C 50,0%
07.08.2020 08:43:20 24,9 C 50,0%
07.08.2020 08:36:18 24,5 C 50,0%
07.08.2020 08:29:17 24,1 C 50,0%
07.08.2020 08:22:15 23,7 C 50,0%
07.08.2020 08:15:12 23,4 C 50,0%
07.08.2020 08:08:10 23,1 C 50,0%
07.08.2020 08:01:07 23,0 C 50,0%
07.08.2020 07:54:04 22,9 C 50,0%
07.08.2020 07:47:04 22,9 C 51,0%
07.08.2020 07:40:03 22,9 C 51,0%
07.08.2020 07:33:01 22,8 C 51,0%
07.08.2020 07:26:01 22,8 C 51,0%
07.08.2020 07:18:59 22,8 C 51,0%
07.08.2020 07:11:56 22,8 C 51,0%
07.08.2020 07:04:53 22,8 C 51,0%
07.08.2020 06:57:52 22,8 C 50,0%
07.08.2020 06:50:49 22,7 C 50,0%
07.08.2020 06:43:48 22,8 C 50,0%
07.08.2020 06:36:46 22,8 C 50,0%
07.08.2020 06:29:45 22,8 C 50,0%
07.08.2020 06:22:41 22,8 C 50,0%
07.08.2020 06:15:38 22,8 C 50,0%
07.08.2020 06:08:35 22,9 C 50,0%
07.08.2020 06:01:34 22,9 C 50,0%
07.08.2020 05:54:33 23,0 C 50,0%
07.08.2020 05:47:31 23,0 C 50,0%
07.08.2020 05:40:30 23,1 C 50,0%
07.08.2020 05:33:29 23,1 C 50,0%
07.08.2020 05:26:26 23,2 C 50,0%
07.08.2020 05:19:24 23,2 C 50,0%
07.08.2020 05:12:22 23,3 C 50,0%
07.08.2020 05:05:20 23,3 C 50,0%
07.08.2020 04:58:17 23,4 C 50,0%
07.08.2020 04:51:17 23,5 C 49,0%
07.08.2020 04:44:17 23,5 C 49,0%
07.08.2020 04:37:14 23,6 C 49,0%
07.08.2020 04:30:10 23,7 C 49,0%
07.08.2020 04:23:08 23,7 C 49,0%
07.08.2020 04:16:04 23,8 C 49,0%
07.08.2020 04:09:02 23,9 C 49,0%
07.08.2020 04:02:01 23,9 C 49,0%
07.08.2020 03:54:58 24,0 C 49,0%
07.08.2020 03:47:57 24,0 C 49,0%
07.08.2020 03:40:54 24,1 C 49,0%
07.08.2020 03:33:53 24,1 C 49,0%
07.08.2020 03:26:50 24,2 C 49,0%
07.08.2020 03:19:48 24,3 C 49,0%
07.08.2020 03:12:47 24,4 C 49,0%
07.08.2020 03:05:45 24,4 C 49,0%
07.08.2020 02:58:44 24,5 C 48,0%
07.08.2020 02:51:42 24,6 C 48,0%
07.08.2020 02:44:41 24,6 C 48,0%
07.08.2020 02:37:39 24,7 C 48,0%
07.08.2020 02:30:38 24,8 C 48,0%
07.08.2020 02:23:38 24,9 C 48,0%
07.08.2020 02:16:36 25,0 C 48,0%
07.08.2020 02:09:34 25,0 C 48,0%
07.08.2020 02:02:30 25,1 C 48,0%
07.08.2020 01:55:27 25,2 C 48,0%
07.08.2020 01:48:25 25,2 C 48,0%
07.08.2020 01:41:23 25,4 C 48,0%
07.08.2020 01:34:21 25,5 C 48,0%
07.08.2020 01:27:19 25,5 C 48,0%
07.08.2020 01:20:16 25,6 C 48,0%
07.08.2020 01:13:14 25,7 C 48,0%
07.08.2020 01:06:13 25,8 C 48,0%
07.08.2020 00:59:11 25,9 C 48,0%
07.08.2020 00:52:08 25,9 C 48,0%
07.08.2020 00:45:06 26,0 C 48,0%
07.08.2020 00:38:05 26,1 C 48,0%
07.08.2020 00:31:02 26,2 C 48,0%
07.08.2020 00:24:01 26,3 C 47,0%
07.08.2020 00:16:58 26,4 C 47,0%
07.08.2020 00:09:57 26,5 C 47,0%
07.08.2020 00:02:56 26,6 C 47,0%